Location: Newark
(34.0131°N, 4.3314°W)
Time: 23:17:35
(UTC+00:00)

A-11 Canister half - Pass Details

Date: 01 November 2019
Orbit: 1514 x 1685 km, 47.2° (Epoch: 20 November)

Event Time Altitude Azimuth Distance (km) Brightness Sun altitude
Rises 22:44:17 0° 241° (WSW) 4,929 - -64.0°
Reaches altitude 10° 22:47:28 10° 243° (WSW) 3,943 - -64.4°
Maximum altitude 22:57:38 73° 328° (NNW) 1,739 - -65.9°
Drops below altitude 10° 23:07:39 10° 52° (NE) 3,883 - -67.1°
Sets 23:10:46 0° 55° (NE) 4,850 - -67.5°
